Location: Baia Mare
(47.6567°N, 23.5850°E)
Time: 14:26:40
(UTC+03:00)

ISS - Pass Details

Date: 28 July 2019
Orbit: 409 x 418 km, 51.6° (Epoch: 21 July)

Event Time Altitude Azimuth Distance (km) Brightness Sun altitude
Rises 00:44:08 0° 291° (WNW) 2,352 0.5 -22.4°
Reaches altitude 10° 00:46:22 10° 280° (W) 1,485 -0.7 -22.4°
Enters shadow 00:47:10 15° 273° (W) 1,205 -1.3 -22.5°
